Location: Carnières
(50.1682°N, 3.3474°E)
Time: 20:57:50
(UTC+00:00)

SL-16 R/B - Pass Details

Date: 07 August 2024
Orbit: 842 x 845 km, 71.0° (Epoch: 10 September)

Event Time Altitude Azimuth Distance (km) Brightness Sun altitude
Exits shadow 01:39:41 28° 245° (WSW) 1,529 3.1 -19.4°
Maximum altitude 01:42:24 51° 306° (NW) 1,062 2.7 -19.2°
Drops below altitude 10° 01:47:56 10° 22° (NNE) 2,476 5.9 -18.8°
Sets 01:50:28 0° 28° (NNE) 3,416 7.1 -18.6°
